Lapse_Rate
5.4 5.2 5.1 5.1 5.1 5.0 4.9 4.7 4.9 5.9 5.8 6.0 5.4 5.3 5.1 4.8 4.8 4.6 4.3 4.6 4.5 4.9 4.8 4.5 4.8 4.6 4.9 5.1 5.9 6.7 6.8 7.0 6.9 7.0 7.1 6.9 7.1 7.1 6.7 6.5 6.4 6.3 6.1 6.0
5.5 5.4 5.3 5.3 5.3 5.1 5.0 4.9 5.2 5.8 6.0 5.5 5.4 5.3 5.0 4.7 5.1 4.5 4.2 4.3 4.3 5.1 4.6 4.7 4.7 4.6 4.5 4.9 6.0 6.8 7.2 7.4 7.5 7.4 6.9 7.0 6.8 6.9 6.4 6.2 6.4 6.1 6.4 6.3
5.2 5.1 5.1 5.5 6.0 5.8 5.7 5.9 6.0 5.6 6.0 5.5 5.6 5.3 4.9 4.7 4.7 4.5 4.6 4.3 4.3 4.7 4.7 3.9 4.0 4.4 4.7 5.0 5.6 6.4 6.9 6.9 6.7 6.7 6.7 6.7 6.5 6.5 6.4 6.0 5.8 5.9 5.8 5.6
4.9 5.0 4.2 5.9 6.1 6.2 6.4 6.3 6.1 6.0 5.6 5.4 5.4 5.2 4.9 4.6 4.7 4.6 4.2 4.1 4.2 4.5 4.1 4.3 4.3 4.4 4.7 4.8 5.4 6.0 6.3 6.3 6.4 6.4 6.4 6.3 6.3 5.6 6.0 5.8 5.9 5.8 5.7 5.6
4.6 4.5 5.6 6.3 6.2 6.4 6.3 6.3 6.1 5.7 5.6 5.6 5.3 5.2 5.0 4.7 5.1 4.6 4.4 4.6 4.1 4.2 4.4 4.5 4.6 4.3 4.4 4.9 5.9 5.9 6.0 6.1 6.0 6.2 6.1 6.1 6.0 6.1 6.2 6.1 6.3 5.9 5.9 5.5
4.8 4.9 4.6 5.9 6.1 6.2 6.3 6.2 5.9 5.8 5.9 5.9 5.6 5.5 5.0 5.3 5.4 4.9 4.5 4.5 4.2 4.6 4.2 4.2 4.4 4.4 4.4 4.7 5.8 5.9 5.8 5.9 6.0 5.8 5.9 5.6 5.7 5.5 5.4 5.5 5.4 5.2 5.1 5.0
5.1 4.9 5.4 6.0 5.9 6.1 6.0 6.0 6.0 6.2 6.1 6.1 5.4 5.3 5.2 5.4 5.7 5.6 5.6 5.6 4.8 4.6 4.7 4.6 5.1 4.9 4.8 5.0 5.2 5.6 5.6 5.7 5.6 5.5 5.3 5.0 4.9 5.0 4.9 4.9 5.0 5.0 4.9 5.2
4.8 4.9 5.0 6.0 5.8 6.0 5.9 5.8 6.1 6.1 6.2 6.0 6.0 5.7 5.4 5.3 5.6 5.9 5.9 5.7 5.9 4.9 4.9 5.1 5.0 4.7 4.7 5.2 5.2 5.1 5.2 5.3 5.3 5.1 4.9 4.8 4.8 4.8 5.1 5.3 5.3 5.3 5.3 5.5
5.5 5.8 5.8 5.9 5.7 6.0 5.9 6.0 6.0 6.0 6.1 6.0 6.1 6.1 5.5 5.4 5.6 5.7 5.9 5.9 5.8 5.7 5.5 5.1 5.1 5.1 5.0 5.1 5.1 5.1 5.1 4.9 4.9 4.9 5.0 5.1 5.2 5.1 5.2 5.2 5.4 5.7 6.0 6.1
5.7 5.9 5.9 5.8 5.8 5.9 5.9 6.0 6.0 6.0 6.1 6.2 5.9 5.9 5.9 5.7 5.5 5.7 5.8 5.8 5.7 5.6 5.7 5.5 5.5 5.4 5.1 5.1 5.0 4.9 4.9 5.0 5.1 5.2 5.1 5.2 5.3 5.5 5.7 5.9 6.0 6.1 6.2 6.2
5.9 5.9 5.8 6.0 5.8 5.9 5.8 5.8 6.0 6.1 6.2 6.2 6.2 6.1 5.8 5.9 5.7 5.5 5.6 5.3 5.4 5.5 5.6 5.6 5.6 5.3 5.1 5.1 5.2 5.1 5.1 5.0 5.1 5.1 5.2 5.4 5.6 5.7 5.8 5.9 6.0 6.1 6.2 6.2
5.8 5.6 5.8 5.9 6.0 5.9 5.9 6.1 6.2 6.4 6.5 6.4 6.4 6.3 6.2 6.1 5.9 5.9 5.6 5.2 5.1 5.4 5.5 5.3 5.2 5.2 5.2 5.2 5.2 5.2 5.1 5.0 5.1 5.2 5.3 5.5 5.7 5.7 5.9 6.0 6.1 6.2 6.3 6.2
5.9 6.0 6.1 6.0 6.0 5.9 5.9 6.0 6.2 6.1 6.3 6.3 6.5 6.5 6.4 6.3 6.0 5.7 5.7 5.5 5.5 5.2 5.3 5.3 5.3 5.2 5.2 5.2 5.1 5.2 5.2 5.3 5.4 5.7 5.8 5.8 5.7 5.8 6.0 6.2 6.2 6.3 6.4 6.4
5.5 5.8 5.8 5.8 5.8 6.1 6.0 6.0 6.0 5.9 5.9 6.1 6.3 6.3 6.2 6.0 5.9 5.7 5.7 5.7 5.5 5.0 5.3 5.3 5.3 5.3 5.3 5.3 5.2 5.3 5.5 5.7 5.8 5.7 5.7 5.8 5.9 6.0 6.0 6.1 6.2 6.3 6.4 6.3
5.7 5.6 5.5 5.6 5.7 5.8 5.9 6.0 6.1 6.1 5.9 5.9 6.1 6.2 5.8 5.7 5.7 5.8 5.6 5.6 5.5 5.1 4.9 5.4 5.4 5.4 5.5 5.4 5.5 5.6 5.6 5.6 5.7 5.7 5.8 5.8 5.8 5.9 6.0 6.1 6.1 6.2 6.2 6.2
5.7 5.5 5.4 5.4 5.6 5.9 6.0 6.1 6.1 6.1 6.0 6.0 6.0 6.1 5.7 5.6 5.9 5.7 5.6 5.4 5.3 5.4 5.1 5.5 5.5 5.5 5.5 5.5 5.5 5.5 5.5 5.6 5.6 5.6 5.6 5.7 5.7 5.9 6.0 6.1 6.1 6.1 6.1 5.9
5.8 5.6 5.5 5.3 5.2 5.8 5.8 5.8 6.0 6.0 6.0 6.0 5.9 6.0 5.9 5.6 5.8 5.8 5.8 5.6 5.4 5.3 5.4 5.6 5.6 5.6 5.5 5.5 5.5 5.5 5.4 5.4 5.5 5.5 5.6 5.6 5.7 5.8 6.0 6.1 6.0 5.9 5.8 5.7
5.9 5.9 5.8 5.9 5.8 5.6 5.8 5.8 5.5 5.5 5.5 5.6 5.6 5.7 5.8 5.9 5.8 5.8 5.7 5.6 5.5 5.3 5.5 5.4 5.5 5.5 5.5 5.4 5.5 5.4 5.4 5.4 5.4 5.5 5.5 5.5 5.6 5.7 5.9 6.0 5.9 5.8 5.7 5.5
6.0 5.9 6.2 6.4 6.3 6.2 6.1 6.0 5.9 5.8 5.8 5.6 5.7 5.6 5.8 5.8 6.0 5.8 5.6 5.4 5.4 5.3 5.2 5.3 5.4 5.4 5.4 5.4 5.5 5.4 5.4 5.4 5.5 5.5 5.5 5.5 5.6 5.7 5.8 5.8 5.9 5.8 5.5 5.1
6.4 6.3 6.1 6.1 6.3 6.3 6.2 6.1 5.9 5.7 5.5 5.6 5.5 5.5 5.9 5.8 5.5 5.5 5.7 5.6 5.4 5.3 5.5 5.3 5.3 5.4 5.4 5.4 5.4 5.4 5.4 5.4 5.4 5.4 5.5 5.5 5.6 5.6 5.7 5.8 5.8 5.6 5.3 4.9
5.9 6.0 6.1 5.8 6.0 5.8 5.9 5.9 5.9 5.8 5.7 5.7 5.6 5.8 5.7 5.7 5.7 5.7 5.7 5.5 5.5 5.5 5.5 5.4 5.4 5.4 5.5 5.4 5.5 5.5 5.4 5.4 5.3 5.4 5.5 5.4 5.5 5.7 5.8 5.8 5.8 5.5 5.2 4.9
5.9 5.8 5.8 5.7 5.7 5.9 5.6 5.9 5.8 5.7 5.7 5.6 5.7 5.8 5.9 5.8 5.6 5.7 5.7 5.6 5.6 5.6 5.4 5.4 5.4 5.5 5.5 5.5 5.4 5.4 5.3 5.3 5.3 5.4 5.5 5.5 5.5 5.7 5.8 5.7 5.7 5.4 5.1 4.8
6.3 6.4 6.5 6.4 6.1 6.0 6.2 6.2 6.2 6.3 6.3 6.2 6.2 6.2 6.2 5.9 5.9 5.9 5.7 5.6 5.7 5.5 5.5 5.6 5.6 5.6 5.6 5.5 5.5 5.4 5.4 5.4 5.4 5.4 5.4 5.4 5.5 5.7 5.7 5.6 5.6 5.3 5.0 4.7
6.4 6.3 6.2 6.3 6.3 6.4 6.5 6.6 6.6 6.7 6.7 6.6 6.5 6.7 6.5 6.4 6.1 6.1 5.8 6.0 6.0 5.9 5.8 5.8 5.8 5.6 5.6 5.5 5.4 5.5 5.5 5.4 5.4 5.4 5.4 5.5 5.5 5.6 5.7 5.6 5.5 5.2 5.0 4.7
6.2 6.3 6.3 6.4 6.5 6.5 6.5 6.4 6.5 6.6 6.6 6.6 6.5 6.5 6.3 6.3 6.3 6.3 6.2 6.1 5.9 5.6 5.6 5.5 5.3 5.4 5.5 5.5 5.6 5.5 5.5 5.4 5.4 5.4 5.5 5.5 5.6 5.7 5.7 5.6 5.5 5.2 4.9 4.8
6.3 6.4 6.5 6.5 6.5 6.4 6.4 6.5 6.5 6.6 6.7 6.7 6.7 6.6 6.5 6.4 6.5 6.4 6.4 6.1 6.1 6.0 5.9 5.7 5.3 5.0 5.3 5.4 5.5 5.6 5.5 5.5 5.3 5.4 5.4 5.4 5.6 5.6 5.6 5.6 5.3 5.1 4.9 4.6
6.4 6.5 6.5 6.4 6.6 6.6 6.5 6.4 6.4 6.3 6.4 6.4 6.5 6.5 6.6 6.5 6.6 6.6 6.5 6.3 6.1 5.8 5.7 5.6 5.5 4.9 5.0 5.1 5.1 5.1 5.2 5.2 5.1 5.2 5.1 5.3 5.5 5.5 5.5 5.5 5.3 5.0 4.9 4.7
Wind_Speed
2 4 3 4 4 7 6 5 6 4 6 12 12 12 11 2 6 6 9 12 12 9 6 6 7 7 6 7 6 5 6 8 8 8 9 10 11 12 12 12 12 14 15 14
3 3 5 4 7 8 9 6 10 15 19 20 16 7 4 5 8 10 8 9 9 8 7 7 7 7 8 8 7 6 8 10 10 10 12 12 13 12 13 13 14 13 13 13
3 4 5 5 8 12 6 6 11 10 14 9 6 5 2 4 5 6 7 8 6 6 5 7 7 6 7 7 6 8 8 8 9 9 11 11 12 12 11 13 13 12 12 11
2 4 1 5 2 5 13 8 14 9 11 9 6 2 3 2 3 4 5 5 5 5 5 7 6 6 7 7 7 8 7 7 8 9 10 11 12 10 9 10 11 10 10 9
1 2 6 2 3 6 6 4 8 13 9 5 2 2 3 2 2 2 3 2 3 5 5 7 7 6 6 7 7 8 8 8 8 9 9 11 11 9 8 10 9 9 7 7
3 2 4 3 2 1 3 3 3 5 4 2 1 4 1 2 1 3 3 4 4 5 5 6 6 6 7 8 7 7 8 9 9 9 11 11 8 8 6 6 8 6 8 5
3 2 6 8 5 2 3 4 2 3 4 4 3 1 4 4 4 4 5 4 5 5 5 5 5 6 8 6 7 6 7 8 9 10 9 8 7 5 6 7 6 7 8 6
3 3 7 4 2 2 3 1 2 3 3 4 4 6 5 4 4 4 4 5 6 5 6 6 6 6 7 7 5 7 9 9 8 7 5 5 6 4 5 6 6 5 5 5
7 5 4 3 3 2 3 4 2 2 3 6 6 4 7 5 4 3 5 5 5 4 5 5 6 4 7 4 6 7 8 7 7 5 5 4 5 5 4 5 5 4 4 4
1 3 6 8 6 6 5 5 3 4 4 7 6 7 6 6 5 4 6 7 6 5 6 6 6 5 5 6 6 7 7 6 5 5 6 5 5 4 4 4 4 3 3 3
4 7 7 5 4 4 3 3 2 2 4 7 7 8 7 6 6 6 5 5 5 6 6 7 6 6 5 5 6 6 6 5 5 5 5 5 4 4 4 2 4 3 2 1
3 2 2 5 4 2 4 4 5 5 2 4 6 9 7 7 6 6 6 5 5 6 5 5 5 5 4 5 6 6 5 4 4 4 4 4 4 4 9 8 8 8 5 2
3 6 7 10 7 3 3 4 3 5 5 7 5 7 9 7 7 9 6 6 6 7 6 6 5 5 4 5 6 5 6 4 4 4 3 3 2 2 2 3 8 9 8 6
0 6 3 2 4 6 4 1 2 2 2 4 7 5 7 8 9 7 8 7 7 7 6 6 6 5 5 6 6 6 5 9 4 3 3 3 3 3 3 3 2 2 6 6
4 4 6 8 6 3 1 1 2 3 3 4 5 6 9 10 9 7 6 7 7 7 6 6 6 5 5 5 6 6 5 4 4 3 3 4 3 3 3 2 2 2 3 4
11 9 9 6 6 4 3 3 4 4 4 4 6 7 8 8 8 8 8 9 10 8 7 7 6 5 6 6 6 5 5 9 6 3 3 3 3 3 2 2 2 2 2 3
7 7 6 5 5 4 6 6 6 5 5 6 6 6 7 8 8 8 7 7 6 7 8 8 7 6 6 6 6 4 4 4 7 3 3 3 2 2 1 1 2 3 3 3
6 9 9 10 10 10 7 6 6 6 6 7 7 7 7 9 8 7 7 6 6 5 5 6 7 6 6 6 5 4 4 4 3 3 2 2 1 0 0 1 2 3 3 3
7 7 8 8 7 8 8 6 7 6 6 8 8 8 7 6 7 7 7 7 7 8 6 6 13 9 6 7 7 4 4 4 3 2 1 1 1 1 1 2 3 3 3 3
8 9 9 9 6 5 2 1 5 5 6 7 7 6 6 6 6 7 7 7 6 3 8 8 7 6 6 7 9 4 4 4 3 2 2 2 2 2 2 4 4 3 3 4
9 9 10 10 8 5 5 3 4 4 4 5 7 7 7 6 6 7 6 5 5 7 9 13 6 4 4 6 6 4 4 4 3 3 3 2 3 3 3 3 3 3 4 4
8 8 8 9 7 5 4 1 2 3 4 5 5 5 6 6 6 5 3 4 5 13 7 5 5 10 6 11 4 4 4 4 3 3 3 3 3 3 3 3 3 3 4 3
6 7 7 8 7 6 3 1 2 3 4 5 5 6 6 5 6 7 6 5 6 12 6 5 11 15 14 5 4 4 4 4 4 4 3 3 3 3 3 3 3 3 3 4
5 6 6 7 6 6 6 6 4 4 4 4 5 6 6 4 3 3 3 12 16 15 7 8 12 16 14 5 4 4 4 4 3 3 3 6 3 3 3 3 4 4 4 6
4 4 3 6 5 4 5 5 5 3 3 4 4 4 6 4 4 5 4 6 15 12 7 16 18 18 5 5 4 4 4 3 3 3 3 3 3 3 3 3 4 4 4 4
5 4 3 4 3 4 4 3 3 3 3 3 3 3 3 3 3 5 6 9 8 12 6 7 7 7 6 5 5 5 4 4 4 3 4 3 3 3 3 4 4 4 5 5
3 6 3 3 2 3 4 4 3 4 3 3 4 3 3 3 4 4 8 6 6 6 6 5 5 7 6 5 5 4 3 3 5 3 3 3 3 3 4 4 4 4 6 6
Wind_Direction
268 226 189 201 189 169 182 179 180 250 227 266 293 299 304 4 357 353 359 0 12 1 358 2 15 14 12 21 19 18 46 54 49 59 70 73 71 79 84 85 89 92 93 89
306 351 216 248 226 199 212 226 255 260 278 277 282 280 295 22 358 2 354 350 5 347 5 23 24 19 22 22 10 37 58 60 67 71 75 76 77 79 83 85 84 85 85 90
292 343 326 298 225 202 182 200 215 231 244 286 295 300 355 2 5 343 346 355 3 343 27 37 35 29 30 20 28 37 48 72 82 87 84 84 85 89 91 91 91 89 86 88
292 353 341 243 178 178 200 228 219 261 270 290 294 67 107 45 343 346 352 6 9 2 35 56 56 42 44 34 38 49 54 65 66 74 81 85 84 86 84 87 88 89 84 81
311 281 287 300 166 147 178 269 206 224 262 279 22 118 203 57 65 20 27 52 43 35 39 56 54 58 61 55 51 57 51 47 57 67 77 79 73 73 71 75 77 82 82 82
199 270 247 251 216 63 138 319 172 186 234 241 73 350 356 108 76 89 56 51 54 55 53 60 64 75 77 66 59 59 61 66 69 76 80 73 68 72 75 92 91 84 84 83
238 251 278 251 273 128 85 237 188 211 244 184 209 161 125 127 97 80 72 59 59 61 61 59 70 80 77 73 66 62 71 76 73 72 73 82 81 69 76 77 85 81 80 63
177 217 265 189 83 175 217 247 228 236 231 203 121 132 127 129 121 111 90 70 68 64 65 64 77 91 81 68 66 73 73 72 69 70 78 82 87 76 65 82 85 79 86 65
181 214 245 209 257 254 182 220 238 230 200 154 148 177 148 141 139 121 112 94 93 88 76 67 85 87 92 80 86 80 79 76 77 69 59 66 87 85 80 78 84 78 78 74
85 256 254 259 266 254 199 212 204 226 195 170 161 158 148 141 145 139 127 115 122 120 107 94 91 82 89 104 110 106 98 88 84 87 74 61 64 68 79 78 86 92 90 76
261 285 279 254 247 273 222 211 205 170 207 189 152 164 158 148 152 139 135 130 131 117 113 113 116 114 112 104 105 96 91 88 80 77 83 83 77 99 91 75 110 100 110 138
233 290 226 267 299 281 235 232 221 185 190 180 167 159 148 150 149 148 149 143 128 122 120 126 123 120 126 129 125 120 108 104 107 96 80 75 80 48 72 84 87 77 95 92
270 317 261 266 280 245 256 244 215 197 203 175 165 153 149 143 153 156 146 150 153 150 140 138 143 141 145 140 133 126 119 113 98 98 105 120 104 108 106 26 63 57 42 29
350 333 323 17 320 302 251 269 110 97 166 181 161 148 147 145 150 164 169 165 152 149 151 150 147 148 150 139 121 117 117 121 113 119 121 115 114 106 87 68 35 356 3 10
11 351 255 279 293 281 1 183 179 171 167 150 154 153 153 153 159 173 161 150 147 149 153 147 145 155 146 134 125 125 122 126 131 126 123 113 97 83 78 69 47 11 345 356
322 305 285 264 282 264 240 236 223 213 183 170 162 163 164 155 154 164 159 158 157 173 165 160 159 159 147 137 132 132 139 141 133 121 110 98 87 82 60 37 9 359 337 322
316 325 341 317 302 274 239 240 232 212 180 182 181 158 142 146 153 161 171 173 163 161 161 154 160 150 148 147 145 141 133 127 128 103 99 91 87 76 56 358 329 321 307 307
266 265 264 262 271 271 258 222 217 202 191 181 154 152 155 165 175 172 160 142 132 127 149 149 147 143 144 146 141 136 129 126 118 114 111 108 134 115 338 314 306 307 308 305
313 311 313 294 274 249 249 220 197 184 157 156 159 173 171 173 164 166 154 159 164 161 182 152 158 148 143 154 139 130 126 126 120 116 124 166 74 249 268 282 292 293 296 299
344 341 337 340 350 349 288 192 146 146 151 153 154 157 169 177 162 161 171 186 178 157 144 158 147 146 149 158 140 131 133 144 153 162 177 204 235 258 274 290 293 287 289 287
355 350 351 354 355 10 27 70 110 130 155 162 173 184 186 167 160 152 158 181 188 154 150 159 153 148 144 152 137 139 147 159 169 187 211 218 259 255 262 268 276 281 287 287
354 351 348 351 351 353 1 48 141 152 172 180 178 161 155 164 160 173 191 192 154 165 154 151 155 166 166 159 144 154 161 173 184 187 207 223 235 247 251 256 267 278 279 280
356 354 347 352 341 323 335 318 256 214 205 197 189 185 187 184 175 175 203 186 164 172 159 161 172 175 178 145 157 163 170 183 201 206 209 214 219 222 238 258 261 265 275 280
350 357 354 343 342 15 8 345 305 243 225 211 203 192 188 174 189 196 173 169 173 171 172 170 179 182 176 149 160 170 182 199 201 198 207 230 220 234 246 253 273 272 270 288
338 324 338 360 5 356 333 329 331 335 288 261 237 207 202 196 192 179 165 168 178 170 167 185 185 189 160 153 165 179 191 185 196 198 205 210 227 235 242 251 258 269 264 261
343 332 335 1 341 336 326 333 318 311 297 281 268 234 209 180 174 166 171 173 178 175 170 179 183 177 151 156 170 184 190 200 212 214 209 219 225 236 245 253 256 269 273 270
319 345 333 335 324 340 326 321 311 296 275 248 256 234 208 189 186 169 178 170 173 167 168 168 171 162 154 163 172 184 180 196 213 204 220 226 227 245 252 252 256 265 269 270